Location: Camaret
(48.2753°N, 4.5961°W)
Time: 03:48:37
(UTC+00:00)

Cosmos 2263 Rocket - Pass Details

Date: 29 October 2020
Orbit: 822 x 850 km, 71.0° (Epoch: 01 December)

Event Time Altitude Azimuth Distance (km) Brightness Sun altitude
Rises 20:20:05 0° 329° (NNW) 3,422 6.0 -33.0°
Reaches altitude 10° 20:22:35 10° 325° (NW) 2,484 5.2 -33.4°
Enters shadow 20:26:58 47° 290° (WNW) 1,123 3.1 -34.1°
